STARLINK-4625, 53683

Orbit data source: Space-Track

STARLINK-4625, 53683 is a payload satellite owned by SpaceX/Seattle (US) in SSO that was launched on Wed, 31 Aug 2022 UTC via an FALCON 9 launch vehicle from the Air Force Western Test Range (AFWTR). Payload-class satellites include a variety of spacecraft equipped with specific instruments for various scientific and technological missions. These include communications satellites like Starlink; space stations such as the ISS; scientific satellites like the Hubble; Earth observation satellites from companies like Planet Labs, Umbra, and HawkEye 360; GPS; miniature CubeSats for education and research; and military/defense satellites.

Loading next visibility...
Identifier
53683, 2022-105AM
Orbit
SSO
Last TLE update
4 hours ago
Origin
Manufacturer
SpaceX/Seattle
Mission
Operational Commercial Communications
Bus & Motor
STARLINK, Unknown motor
Mass
300 kg wet, ~290 kg dry
Launch date (UTC)
2022-08-31 (3 years ago)
Launch vehicle
FALCON 9
Launch site
Air Force Western Test Range (AFWTR)
Object type
Payload
Rocket body
Debris
Shape & HBR
Box + 1 Pan, 4.4 m
Radar Cross Section
13.562 m², Large (>1 m²)

Expand to show TLE details & history

TLE from 4 hours ago
0 STARLINK-4625
1 53683U 22105AM  25199.18254205 -.00000188  00000-0 -10078-4 0  9997
2 53683  97.6563  80.3346 0001134 139.8430 220.2878 15.01257077158338
Epoch: 2025-07-18T04:22Z
TLE epoch observation values (Epoch: 2025-07-18T04:22:51.633Z)
Latitude
-0.00002°
Longitude
78.3818°
Altitude
566.677 km
Speed
7.577 km/s
True Right ascension
05h 21m 20s
True Declination
0° 00' 00"
Sunlit
Object was in daylight at epoch
Visualization orbit readout
Latitude
-35.42785°
Longitude
-106.90515°
Altitude
576.303 km
Speed
7.571 km/s
Apparent Right ascension
13h 35m 22s
Apparent Declination
-54° 58' 36"
Sunlit
Object is in full shadow
Visualization observer readout
Local Sidereal Time
21:17:24
Azimuth
227.809° WSW
Elevation
-45.645°
Doppler factor
1
Orbital elements
Apogee altitude
560.807 km
Perigee altitude
559.234 km
Semi-major axis
6,938.158 km
Eccentricity
0.00011
Inclination
97.6563°
RAAN
80.3346°
Arg. of periapsis
139.843°
True anomaly
220.2794°
Mean anomaly
220.2878°
Eccentric anomaly
220.2836°
Mean motion
3.75558 °/min
Orbital period
95.86 mins
BSTAR
-0.000010078
Loading maneuver chart data...
Loading SW <> Apogee altitude chart data...
Loading historical data...
Loading historical data...
Loading historical data...
Loading historical data...
Loading historical data...
Loading historical data...
Loading historical data...
|